カタログに戻る

MEGSAT 1

運用中科学VLEO
NORAD 26546·PAYLOAD·🇮🇹 Italy

打ち上げ Sep 26, 2000 から Baikonur Cosmodrome

Loading…

次のパス (今後24時間)

TLE

最新Source: Space-Track

元期: Sep 14, 2026, 01:51 UTC

1 26546U 00057B   26257.07754720  .00002060  00000-0  15072-3 0  9995
2 26546  64.5492 144.1704 0044041 273.8959  85.7124 15.05906363411047

AllMySatでMEGSAT 1をリアルタイム追跡

Download on the App Store